EA5DHO-13 Weather Reports


Display with metric or nautical units.
time (UTC)temp
F
wind
direction
speed
MPH
gust
MPH
rain 1hr
in
rain 24hr
in
rain mn
in
humidity
%
barometer
mb
20260503054506 63 23 1.0 2.0 0.01 0.01 0.01 91 1017.4
20260503053502 64 45 0.0 2.0 0.01 0.01 0.01 90 1017.2
20260503052459 64 45 1.0 2.0 0.00 0.00 0.00 90 1017.3
20260503051457 63 75 2.0 2.0 0.00 0.00 0.00 90 1017.2
20260503050454 63 23 0.0 2.0 0.00 0.00 0.00 91 1017.4
20260503045450 63 23 1.0 2.0 0.00 0.00 0.00 91 1017.3
20260503044509 63 60 2.0 2.0 0.00 0.00 0.00 91 1017.2
20260503043443 63 41 1.0 2.0 0.00 0.00 0.00 91 1017.0
20260503042501 63 62 2.0 4.0 0.00 0.00 0.00 91 1017.1
20260503041437 63 60 2.0 4.0 0.00 0.00 0.00 91 1017.2
20260503040434 63 45 1.0 2.0 0.00 0.00 0.00 92 1017.3
20260503035431 63 56 2.0 4.0 0.00 0.00 0.00 91 1017.2
20260503034447 63 18 3.0 6.0 0.00 0.00 0.00 91 1017.2
20260503033425 63 57 3.0 7.0 0.00 0.00 0.00 91 1017.3
20260503032422 64 45 1.0 2.0 0.00 0.00 0.00 91 1017.2
20260503031418 64 5 3.0 8.0 0.00 0.00 0.00 90 1017.2
20260503030515 64 68 2.0 2.0 0.00 0.00 0.00 89 1017.3
20260503025511 64 72 3.0 6.0 0.00 0.00 0.00 89 1017.4
20260503024528 64 0.0 2.0 0.00 0.00 0.00 88 1017.7
20260503023505 64 45 0.0 2.0 0.00 0.00 0.00 88 1017.8
20260503022503 64 45 1.0 2.0 0.00 0.00 0.00 88 1017.9
20260503021459 64 52 3.0 4.0 0.00 0.00 0.00 89 1018.0
20260503020538 64 61 1.0 6.0 0.00 0.00 0.00 90 1017.9
20260503015452 64 45 4.0 4.0 0.00 0.00 0.00 90 1017.8
20260503014449 63 68 4.0 6.0 0.00 0.00 0.00 90 1017.9
20260503013445 63 68 6.0 8.0 0.00 0.00 0.00 91 1018.1
20260503012442 63 68 4.0 7.0 0.00 0.00 0.00 91 1018.2
20260503011439 64 90 3.0 6.0 0.00 0.00 0.00 91 1018.4
20260503010437 64 79 2.0 4.0 0.00 0.00 0.00 90 1018.6
20260503005453 64 23 1.0 2.0 0.00 0.00 0.00 90 1018.5
20260503004429 64 23 1.0 4.0 0.00 0.00 0.00 90 1018.6
20260503003426 64 45 2.0 6.0 0.00 0.00 0.00 90 1018.7
20260503002423 64 23 2.0 4.0 0.00 0.00 0.00 90 1018.9
20260503001420 64 23 2.0 6.0 0.00 0.00 0.00 90 1018.9
20260503000438 64 0 2.0 4.0 0.00 0.00 0.00 90 1019.0
20260502235513 64 45 1.0 2.0 0.00 0.00 0.00 90 1019.3
20260502234510 64 23 0.0 2.0 0.00 0.00 0.00 90 1019.6
20260502233507 64 23 2.0 6.0 0.00 0.00 0.00 90 1019.5
20260502232504 64 23 0.0 2.0 0.00 0.00 0.00 89 1019.4
20260502231501 64 23 1.0 4.0 0.00 0.00 0.00 89 1019.3
20260502230457 65 68 1.0 2.0 0.00 0.00 0.00 89 1019.4
20260502225454 65 60 1.0 2.0 0.00 0.00 0.00 89 1019.5
20260502224452 65 60 4.0 6.0 0.00 0.00 0.00 89 1019.6
20260502223449 65 122 4.0 6.0 0.00 0.00 0.00 89 1019.6
20260502222506 65 50 5.0 7.0 0.00 0.00 0.00 88 1019.4
20260502221542 65 80 4.0 7.0 0.00 0.00 0.00 88 1019.7
20260502220438 65 68 3.0 7.0 0.00 0.00 0.00 87 1019.6
20260502215436 65 77 5.0 8.0 0.00 0.00 0.00 86 1019.6
20260502214431 65 68 2.0 6.0 0.00 0.00 0.00 86 1019.7
20260502213428 65 77 4.0 4.0 0.00 0.00 0.00 87 1019.5
20260502212425 65 50 3.0 6.0 0.00 0.00 0.00 87 1019.7
20260502211442 65 78 3.0 7.0 0.00 0.00 0.00 87 1019.6
20260502210438 65 83 4.0 6.0 0.00 0.00 0.00 87 1019.6
20260502205415 65 68 3.0 4.0 0.00 0.00 0.00 86 1019.5
20260502204512 65 79 2.0 4.0 0.00 0.00 0.00 86 1019.4
20260502203509 65 96 5.0 7.0 0.00 0.00 0.00 86 1019.6
20260502202505 65 82 5.0 7.0 0.00 0.00 0.00 86 1019.3
20260502201503 65 90 4.0 8.0 0.00 0.00 0.00 86 1019.4
20260502200459 65 95 5.0 9.0 0.00 0.00 0.00 85 1019.4
20260502195516 65 76 3.0 8.0 0.00 0.00 0.00 84 1019.2
20260502194514 65 105 7.0 9.0 0.00 0.00 0.00 84 1019.2
20260502193449 65 79 3.0 6.0 0.00 0.00 0.00 84 1019.2
20260502192447 65 68 5.0 7.0 0.00 0.00 0.00 85 1019.0
20260502191443 65 90 10.0 13.0 0.00 0.00 0.00 86 1018.9
20260502190500 65 45 4.0 8.0 0.00 0.00 0.00 87 1019.0
20260502185436 65 68 8.0 13.0 0.00 0.00 0.00 87 1018.8
20260502184433 66 68 3.0 6.0 0.00 0.00 0.00 86 1018.8
20260502183510 65 75 8.0 13.0 0.00 0.00 0.00 86 1019.1
20260502181423 66 84 6.0 11.0 0.00 0.00 0.00 86 1019.4
20260502180421 65 76 6.0 11.0 0.00 0.00 0.00 86 1019.6
20260502170502 66 68 4.0 7.0 0.00 0.00 0.00 85 1019.9
20260502163452 67 68 6.0 9.0 0.00 0.00 0.00 83 1019.9
20260502162449 67 68 10.0 13.0 0.00 0.00 0.00 83 1019.8
20260502161446 67 85 6.0 9.0 0.00 0.00 0.00 83 1019.8
20260502160443 68 113 4.0 7.0 0.00 0.00 0.00 81 1019.9
20260502151426 68 105 11.0 14.0 0.00 0.00 0.00 79 1020.3
20260502150502 68 79 6.0 11.0 0.00 0.00 0.00 79 1020.1
20260502130445 68 113 8.0 14.0 0.00 0.00 0.00 83 1021.5
20260502123435 68 113 6.0 15.0 0.00 0.00 0.00 83 1021.6
20260502122431 67 120 10.0 15.0 0.00 0.00 0.00 83 1021.9
20260502121428 67 107 7.0 11.0 0.00 0.00 0.00 82 1022.3
20260502120425 68 135 10.0 11.0 0.00 0.00 0.00 81 1022.2
20260502115421 68 28 8.0 13.0 0.00 0.00 0.00 81 1022.2
20260502113415 68 131 6.0 11.0 0.00 0.00 0.00 82 1022.3
20260502112512 68 130 8.0 11.0 0.00 0.00 0.00 81 1022.3
20260502111510 69 90 7.0 11.0 0.00 0.00 0.00 81 1022.3
20260502110505 68 113 6.0 11.0 0.00 0.01 0.00 81 1022.5
20260502105502 68 90 8.0 11.0 0.00 0.02 0.00 82 1022.7
20260502104459 68 77 7.0 9.0 0.00 0.07 0.00 81 1022.7
20260502103517 68 68 8.0 11.0 0.00 0.12 0.00 80 1022.7
20260502102452 68 68 8.0 13.0 0.00 0.13 0.00 78 1022.7
20260502101449 70 87 2.0 4.0 0.00 0.15 0.00 77 1022.8
20260502100505 69 53 4.0 7.0 0.00 0.15 0.00 77 1022.7
20260502091511 69 78 3.0 6.0 0.00 0.15 0.00 80 1023.1
20260502090427 68 45 3.0 6.0 0.00 0.15 0.00 81 1023.1
20260502071451 66 23 1.0 2.0 0.00 0.15 0.00 86 1023.2
20260502070448 65 23 2.0 4.0 0.00 0.15 0.00 87 1023.1
20260502065444 65 23 0.0 2.0 0.00 0.15 0.00 88 1023.0
20260502064441 65 33 1.0 4.0 0.00 0.15 0.00 89 1023.1
20260502063438 64 23 2.0 4.0 0.00 0.15 0.00 89 1023.3
20260502062435 64 45 2.0 2.0 0.00 0.15 0.00 89 1023.4
20260502061431 64 23 1.0 2.0 0.00 0.15 0.00 89 1023.3
20260502060428 64 39 2.0 4.0 0.00 0.15 0.00 90 1023.1
20260502055427 64 45 0.0 2.0 0.00 0.15 0.00 90 1023.0